Notices

What's New in latest Release from April 7th, 2021:

- Updated Glossary, including Speed of Maximum Gust, and Total Hourly Precipitation

- Updated national and regional climate services offices contacts and prices information

- Addition of station inventory lists for 1981-2010, 1971-2000, and 1961-1990 Normals.

If you haven't already, please take our survey and provide feedback about our website: https://eccc.sondage-survey.ca/f/LanguageSelection.aspx?s=442ca660-fcf1-47c0-95a9-59707d6fd709

Hourly Data Report for October 25, 2019

PINAWA
MANITOBA
Current Station Operator: ECCC - MSC

50°10'38.020" N
96°03'53.000" W
268.00 m
503B1ER
71448
WEA

Download Data

Hourly Data (October 2019)
Hourly Data Report for October 25, 2019
TIME
LST
Temp Definition
°C
Dew Point Definition
°C
Rel Hum Definition
%
Precip. Amount Definition
mm

Wind Dir Definition
10's deg

Wind Spd Definition
km/h
Visibility Definition
km
Stn Press Definition
kPa
Hmdx Definition


Wind Chill Definition


Weather Definition


00:00 0.2 LegendMM LegendMM 0.0 16 7   98.63     LegendNANA
01:00 0.3 LegendMM LegendMM 0.0 17 7   98.52     LegendNANA
02:00 0.6 LegendMM LegendMM 0.0 16 8   98.45     LegendNANA
03:00 1.0 LegendMM LegendMM 0.0 17 6   98.36     LegendNANA
04:00 1.2 LegendMM LegendMM 0.0 17 7   98.26     LegendNANA
05:00 1.5 LegendMM LegendMM 0.0 16 9   98.17     LegendNANA
06:00 2.0 LegendMM LegendMM 0.0 17 10   98.11     LegendNANA
07:00 2.3 LegendMM LegendMM 0.0 17 10   98.03     LegendNANA
08:00 2.7 LegendMM LegendMM 0.0 17 9   97.91     LegendNANA
09:00 4.2 LegendMM LegendMM 0.0 18 6   97.87     LegendNANA
10:00 5.2 LegendMM LegendMM 0.0 21 12   97.79     LegendNANA
11:00 6.6 LegendMM LegendMM 0.0 20 12   97.73     LegendNANA
12:00 8.2 LegendMM LegendMM 0.0 21 8   97.70     LegendNANA
13:00 8.8 LegendMM LegendMM 0.0 23 10   97.65     LegendNANA
14:00 9.3 LegendMM LegendMM 0.0 23 7   97.60     LegendNANA
15:00 9.3 LegendMM LegendMM 0.0 22 8   97.55     LegendNANA
16:00 9.0 LegendMM LegendMM 0.0 19 8   97.51     LegendNANA
17:00 8.4 LegendMM LegendMM 0.0 17 9   97.44     LegendNANA
18:00 7.6 LegendMM LegendMM 0.0 16 7   97.44     LegendNANA
19:00 7.8 LegendMM LegendMM 0.0 15 10   97.31     LegendNANA
20:00 8.1 LegendMM LegendMM 0.0 16 11   97.22     LegendNANA
21:00 8.1 LegendMM LegendMM 0.0 17 10   97.10     LegendNANA
22:00 8.4 LegendMM LegendMM 0.0 16 11   97.02     LegendNANA
23:00 8.6 LegendMM LegendMM 0.0 16 9   96.88     LegendNANA

Notes on Data Quality.

Legend

  • E = Estimated
  • M = Missing
  • NA = Not Available*
  • [empty] = Indicates an unobserved value
Date modified: